Regional Weather Roundup
Issued by NWS

Home | Current Version | Previous Version | Graphics & Text | Print | Product List | Glossary On
Versions: 1 2 3 4 5 6 7 8 9 10 11 12 13 14 15 16 17 18 19 20 21 22 23 24 25 26 27 28 29 30 31 32 33 34 35 36 37 38 39 40 41 42 43 44 45 46 47 48 49 50
000
ASUS43 KBIS 071002
RWRND

NORTH DAKOTA REGIONAL WEATHER ROUNDUP
NATIONAL WEATHER SERVICE BISMARCK ND
400 AM CST WED DEC 07 2016

NOTE: "FAIR" INDICATES FEW OR NO CLOUDS BELOW 12,000 FEET WITH NO
SIGNIFICANT WEATHER AND/OR OBSTRUCTIONS TO VISIBILITY.


NDZ001>003-009>011-017-071100-
NORTHWEST NORTH DAKOTA

CITY           SKY/WX    TMP DP  RH WIND       PRES   REMARKS
WILLISTON      CLOUDY     4  -3  73 NW15      30.25R WCI -14
MINOT          LGT SNOW   7   2  80 W36G43    30.04R WCI -18
MINOT AFB      LGT SNOW   5   1  85 NW38      30.03R VSB 3/4 WCI -21
$$

NDZ018>021-031>035-040>046-071100-
SOUTHWEST NORTH DAKOTA

CITY           SKY/WX    TMP DP  RH WIND       PRES   REMARKS
BISMARCK       CLOUDY     4  -1  80 W20G33    30.13S WCI -17
DICKINSON      MIX PCPN   1  -5  75 NW26G36   30.14R WCI -23
GARRISON         N/A      5   1  83 NW32G43   30.08R WCI -20
HETTINGER ARPT CLOUDY     1  -5  75 W22G28    30.18R WCI -21
$$

NDZ004>008-012>016-024-026-027-054-071100-
NORTHEAST NORTH DAKOTA

CITY           SKY/WX    TMP DP  RH WIND       PRES   REMARKS
GRAND FORKS    LGT SNOW  15  10  80 NW29G40   29.83R VSB 1   WCI  -5
GRND FRKS AFB  LGT SNOW  14   8  78 NW24G36   29.84R WCI  -5
DEVILS LAKE    LGT SNOW   8   5  87 NW33      29.89R FOG     WCI -16
$$

NDZ022-023-025-028>030-036>039-047>053-071100-
SOUTHEAST NORTH DAKOTA

CITY           SKY/WX    TMP DP  RH WIND       PRES   REMARKS
FARGO          CLOUDY    13   6  74 W24G33    29.90R WCI  -7
JAMESTOWN      PTCLDY     8   3  80 NW23G33   29.95R BLWGSNOWWCI -13
$$





USA.gov is the U.S. government's official web portal to all federal, state and local government web resources and services.